Total_Precipitation_Accumulation
0.01 0.01 0.01 0.03 0.05 0.08 0.10 0.11 0.13 0.15 0.16 0.15 0.12 0.08 0.04 0.02 0.01 0.00 0.00 0.00 0.00 0.00 0.00 0.00 0.00 0.00 0.00 0.00 0.00 0.00 0.00 0.00 0.00 0.00 0.00 0.00 0.00 0.00 0.00 0.00 0.00 0.00 0.00 0.00 0.00 0.00 0.00
0.01 0.01 0.00 0.01 0.03 0.06 0.10 0.14 0.14 0.13 0.13 0.14 0.14 0.12 0.10 0.06 0.02 0.01 0.01 0.00 0.00 0.00 0.00 0.00 0.00 0.00 0.00 0.00 0.00 0.00 0.00 0.00 0.00 0.00 0.00 0.00 0.00 0.00 0.00 0.00 0.00 0.00 0.00 0.00 0.00 0.00 0.00
0.02 0.02 0.02 0.01 0.01 0.03 0.07 0.13 0.19 0.20 0.17 0.13 0.13 0.15 0.15 0.13 0.08 0.04 0.01 0.00 0.00 0.00 0.00 0.00 0.00 0.00 0.00 0.00 0.00 0.00 0.00 0.00 0.00 0.00 0.00 0.00 0.00 0.00 0.00 0.00 0.00 0.00 0.00 0.00 0.00 0.00 0.00
0.03 0.02 0.03 0.03 0.02 0.01 0.01 0.05 0.11 0.20 0.24 0.20 0.16 0.16 0.16 0.16 0.16 0.14 0.10 0.04 0.01 0.00 0.00 0.00 0.00 0.00 0.01 0.00 0.00 0.00 0.00 0.00 0.00 0.00 0.00 0.00 0.00 0.00 0.00 0.00 0.00 0.00 0.00 0.00 0.00 0.00 0.00
0.02 0.01 0.02 0.03 0.02 0.01 0.01 0.01 0.03 0.08 0.19 0.29 0.30 0.27 0.23 0.21 0.21 0.21 0.24 0.23 0.12 0.03 0.00 0.00 0.00 0.01 0.01 0.00 0.00 0.00 0.00 0.00 0.00 0.00 0.00 0.00 0.00 0.00 0.00 0.00 0.00 0.00 0.00 0.00 0.00 0.00 0.00
0.02 0.03 0.02 0.03 0.02 0.01 0.01 0.00 0.00 0.02 0.06 0.18 0.35 0.48 0.45 0.37 0.32 0.30 0.31 0.36 0.40 0.39 0.21 0.07 0.03 0.04 0.00 0.00 0.00 0.00 0.00 0.00 0.00 0.00 0.00 0.00 0.00 0.00 0.00 0.00 0.00 0.00 0.00 0.00 0.00 0.00 0.00
0.03 0.03 0.02 0.02 0.02 0.01 0.01 0.01 0.01 0.01 0.01 0.06 0.18 0.36 0.62 0.72 0.70 0.65 0.74 0.94 1.05 0.90 0.50 0.12 0.03 0.01 0.00 0.00 0.00 0.00 0.00 0.00 0.00 0.00 0.00 0.00 0.00 0.00 0.00 0.00 0.00 0.00 0.00 0.00 0.00 0.00 0.00
0.04 0.03 0.03 0.02 0.01 0.01 0.00 0.01 0.01 0.00 0.01 0.01 0.05 0.17 0.36 0.68 1.05 1.36 1.52 1.27 0.59 0.17 0.17 0.06 0.00 0.00 0.00 0.00 0.00 0.00 0.00 0.00 0.00 0.00 0.00 0.00 0.00 0.00 0.00 0.00 0.00 0.00 0.00 0.00 0.00 0.00 0.00
0.07 0.05 0.03 0.02 0.02 0.02 0.01 0.01 0.00 0.00 0.00 0.01 0.01 0.04 0.18 0.49 1.14 1.91 1.70 0.84 0.16 0.24 0.71 0.32 0.02 0.00 0.00 0.00 0.00 0.00 0.00 0.00 0.00 0.00 0.00 0.00 0.00 0.00 0.00 0.00 0.00 0.00 0.00 0.00 0.00 0.00 0.00
0.04 0.03 0.02 0.02 0.02 0.02 0.02 0.02 0.01 0.01 0.01 0.00 0.01 0.02 0.10 0.41 1.50 1.41 1.35 0.46 0.28 0.81 2.33 1.20 0.12 0.01 0.00 0.00 0.00 0.00 0.00 0.00 0.00 0.00 0.00 0.00 0.00 0.00 0.00 0.00 0.00 0.00 0.00 0.00 0.00 0.00 0.00
0.05 0.04 0.03 0.02 0.02 0.02 0.02 0.02 0.01 0.02 0.01 0.00 0.00 0.01 0.10 0.49 0.72 0.95 0.57 0.33 0.86 2.13 3.49 1.19 0.06 0.00 0.00 0.00 0.00 0.00 0.00 0.00 0.00 0.00 0.00 0.00 0.00 0.00 0.00 0.00 0.00 0.00 0.00 0.00 0.00 0.00 0.00
0.04 0.04 0.04 0.04 0.04 0.04 0.03 0.02 0.02 0.01 0.01 0.01 0.01 0.01 0.09 0.34 0.64 0.62 0.44 0.62 1.81 3.25 3.03 0.78 0.02 0.00 0.00 0.00 0.00 0.00 0.00 0.00 0.00 0.00 0.00 0.00 0.00 0.00 0.00 0.00 0.00 0.00 0.00 0.00 0.00 0.00 0.00
0.06 0.06 0.06 0.06 0.06 0.05 0.04 0.04 0.03 0.02 0.02 0.02 0.02 0.02 0.05 0.11 0.34 0.54 0.89 1.43 2.79 3.12 1.45 0.39 0.02 0.00 0.01 0.01 0.00 0.00 0.02 0.00 0.00 0.00 0.00 0.00 0.00 0.00 0.00 0.00 0.00 0.00 0.00 0.01 0.02 0.00 0.00
0.09 0.08 0.06 0.06 0.06 0.06 0.05 0.04 0.04 0.03 0.03 0.03 0.03 0.04 0.03 0.04 0.24 0.74 1.42 1.89 2.51 1.62 0.84 0.14 0.00 0.00 0.01 0.01 0.01 0.00 0.04 0.06 0.00 0.00 0.00 0.00 0.00 0.00 0.00 0.00 0.00 0.00 0.00 0.01 0.03 0.01 0.00
0.10 0.08 0.08 0.07 0.06 0.07 0.06 0.06 0.05 0.04 0.03 0.04 0.09 0.16 0.11 0.02 0.24 0.75 1.39 2.27 1.93 0.75 0.22 0.04 0.01 0.02 0.01 0.00 0.00 0.01 0.02 0.04 0.00 0.00 0.00 0.00 0.00 0.00 0.00 0.00 0.00 0.01 0.00 0.00 0.04 0.02 0.00
0.08 0.08 0.08 0.07 0.06 0.06 0.05 0.05 0.05 0.04 0.04 0.06 0.19 0.29 0.16 0.01 0.21 0.86 1.42 1.52 1.07 0.34 0.04 0.01 0.03 0.07 0.02 0.00 0.01 0.01 0.01 0.00 0.00 0.00 0.00 0.00 0.00 0.00 0.00 0.00 0.00 0.00 0.00 0.04 0.13 0.08 0.01
0.07 0.09 0.10 0.09 0.08 0.07 0.06 0.04 0.05 0.06 0.07 0.14 0.35 0.54 0.20 0.03 0.39 1.00 1.65 1.07 0.48 0.18 0.05 0.03 0.02 0.08 0.04 0.00 0.00 0.00 0.00 0.00 0.00 0.00 0.00 0.00 0.02 0.02 0.00 0.00 0.00 0.00 0.00 0.00 0.02 0.01 0.00
0.05 0.06 0.07 0.11 0.14 0.14 0.11 0.08 0.07 0.09 0.16 0.32 0.57 0.68 0.11 0.12 0.51 0.97 1.11 0.58 0.30 0.05 0.01 0.04 0.04 0.11 0.10 0.01 0.01 0.01 0.00 0.00 0.00 0.00 0.00 0.00 0.03 0.06 0.01 0.00 0.00 0.00 0.00 0.00 0.02 0.01 0.00
0.04 0.04 0.04 0.07 0.13 0.17 0.19 0.15 0.14 0.14 0.25 0.47 0.75 0.45 0.15 0.24 0.56 0.74 0.50 0.43 0.27 0.06 0.01 0.05 0.16 0.09 0.18 0.08 0.04 0.02 0.00 0.00 0.00 0.00 0.01 0.03 0.23 0.25 0.09 0.05 0.02 0.01 0.00 0.00 0.00 0.01 0.01
0.02 0.02 0.03 0.04 0.09 0.16 0.19 0.21 0.21 0.25 0.28 0.51 0.77 0.67 0.59 0.52 0.30 0.21 0.31 0.35 0.40 0.13 0.07 0.04 0.11 0.10 0.08 0.15 0.16 0.08 0.01 0.01 0.00 0.00 0.01 0.04 0.19 0.08 0.04 0.03 0.01 0.00 0.00 0.01 0.01 0.02 0.01
0.02 0.05 0.10 0.09 0.14 0.22 0.22 0.22 0.27 0.35 0.46 0.75 1.01 0.58 0.43 0.78 0.50 0.20 0.19 0.26 0.22 0.21 0.11 0.12 0.12 0.11 0.17 0.16 0.16 0.30 0.20 0.03 0.01 0.01 0.04 0.05 0.14 0.02 0.01 0.04 0.08 0.01 0.00 0.01 0.02 0.01 0.01
0.03 0.09 0.20 0.24 0.30 0.34 0.32 0.32 0.35 0.42 0.62 0.96 0.95 0.31 0.17 0.07 0.07 0.21 0.19 0.22 0.16 0.14 0.15 0.18 0.23 0.10 0.09 0.21 0.16 0.11 0.25 0.19 0.03 0.02 0.03 0.02 0.02 0.01 0.02 0.04 0.15 0.19 0.05 0.02 0.02 0.00 0.00
0.03 0.04 0.05 0.11 0.22 0.41 0.48 0.51 0.43 0.50 0.77 1.04 0.59 0.11 0.23 0.13 0.06 0.21 0.24 0.16 0.10 0.08 0.09 0.11 0.16 0.12 0.10 0.09 0.13 0.14 0.11 0.15 0.14 0.02 0.03 0.04 0.05 0.05 0.11 0.03 0.12 0.19 0.06 0.00 0.00 0.00 0.00
0.03 0.04 0.05 0.08 0.19 0.32 0.50 0.50 0.52 0.72 0.64 0.51 0.21 0.07 0.22 0.32 0.15 0.10 0.15 0.10 0.06 0.06 0.10 0.05 0.06 0.15 0.14 0.05 0.11 0.26 0.35 0.37 0.24 0.10 0.07 0.10 0.18 0.22 0.23 0.14 0.45 0.10 0.00 0.00 0.00 0.00 0.00
0.07 0.08 0.08 0.08 0.14 0.29 0.75 0.64 0.57 0.83 0.57 0.18 0.04 0.04 0.15 0.27 0.22 0.07 0.10 0.15 0.07 0.05 0.09 0.07 0.04 0.09 0.08 0.12 0.34 0.70 0.94 0.95 0.81 0.33 0.13 0.11 0.24 0.44 0.34 0.25 0.11 0.00 0.00 0.00 0.00 0.00 0.00
0.15 0.19 0.19 0.11 0.06 0.08 0.38 0.89 0.62 0.72 0.40 0.18 0.10 0.05 0.21 0.21 0.35 0.16 0.09 0.20 0.18 0.16 0.21 0.26 0.14 0.06 0.28 0.76 0.99 1.06 0.81 0.73 0.67 0.50 0.27 0.19 0.21 0.29 0.43 0.27 0.09 0.00 0.00 0.00 0.00 0.00 0.00
0.10 0.26 0.34 0.26 0.21 0.09 0.07 0.57 0.63 0.50 0.34 0.12 0.10 0.09 0.19 0.30 0.23 0.56 0.33 0.21 0.42 0.29 0.30 0.42 0.41 0.47 0.57 1.14 1.27 0.79 0.59 0.25 0.28 0.33 0.32 0.32 0.36 0.35 0.26 0.17 0.05 0.00 0.00 0.00 0.00 0.00 0.00
0.02 0.08 0.35 0.51 0.37 0.27 0.20 0.13 0.26 0.31 0.36 0.30 0.22 0.16 0.23 0.35 0.27 0.39 0.55 0.25 0.43 0.49 0.48 0.46 0.35 0.50 0.73 0.94 1.00 0.88 0.64 0.40 0.20 0.08 0.05 0.10 0.15 0.20 0.21 0.15 0.05 0.00 0.00 0.00 0.00 0.00 0.00
0.01 0.02 0.04 0.27 0.47 0.31 0.19 0.17 0.17 0.21 0.24 0.30 0.34 0.39 0.36 0.49 0.35 0.24 0.34 0.38 0.16 0.38 0.33 0.27 0.28 0.26 0.31 0.51 0.65 0.59 0.55 0.39 0.28 0.17 0.03 0.01 0.01 0.02 0.02 0.01 0.00 0.00 0.00 0.00 0.00 0.00 0.00